TimeEDT,TemperatureF,Dew PointF,Humidity,Sea Level PressureIn,VisibilityMPH,Wind Direction,Wind SpeedMPH,Gust SpeedMPH,PrecipitationIn,Events,Conditions,WindDirDegrees,DateUTC
12:53 AM,42.1,33.1,70,30.14,10.0,Calm,Calm,-,N/A,,Overcast,0,2013-05-13 04:53:00
1:53 AM,43.0,33.1,68,30.14,10.0,Calm,Calm,-,N/A,,Overcast,0,2013-05-13 05:53:00
2:53 AM,41.0,33.1,73,30.13,10.0,NNW,3.5,-,N/A,,Scattered Clouds,330,2013-05-13 06:53:00
3:53 AM,39.0,34.0,82,30.14,10.0,Calm,Calm,-,N/A,,Mostly Cloudy,0,2013-05-13 07:53:00
4:53 AM,37.9,36.0,93,30.14,10.0,Calm,Calm,-,N/A,,Overcast,0,2013-05-13 08:53:00
5:53 AM,39.0,35.1,86,30.14,10.0,Calm,Calm,-,N/A,,Overcast,0,2013-05-13 09:53:00
6:53 AM,39.0,35.1,86,30.16,10.0,Calm,Calm,-,N/A,,Overcast,0,2013-05-13 10:53:00
7:53 AM,42.1,35.1,76,30.18,10.0,Calm,Calm,-,N/A,,Overcast,0,2013-05-13 11:53:00
8:53 AM,46.9,30.9,54,30.20,10.0,Calm,Calm,-,N/A,,Partly Cloudy,0,2013-05-13 12:53:00
9:53 AM,48.0,26.1,42,30.21,10.0,Variable,3.5,-,N/A,,Overcast,0,2013-05-13 13:53:00
10:53 AM,48.9,28.0,44,30.22,10.0,NNW,3.5,-,N/A,,Overcast,330,2013-05-13 14:53:00
11:53 AM,52.0,28.9,41,30.22,10.0,Variable,3.5,-,N/A,,Partly Cloudy,0,2013-05-13 15:53:00
12:53 PM,50.0,27.0,41,30.22,10.0,East,3.5,-,N/A,,Mostly Cloudy,90,2013-05-13 16:53:00
1:53 PM,51.1,30.0,44,30.21,10.0,WNW,5.8,-,N/A,,Overcast,290,2013-05-13 17:53:00
2:53 PM,53.1,32.0,45,30.19,10.0,NNE,8.1,-,N/A,,Mostly Cloudy,20,2013-05-13 18:53:00
4:53 PM,52.0,32.0,47,30.18,10.0,North,8.1,16.1,N/A,,Mostly Cloudy,10,2013-05-13 20:53:00
5:53 PM,53.1,30.0,41,30.17,10.0,Calm,Calm,-,N/A,,Mostly Cloudy,0,2013-05-13 21:53:00
6:53 PM,55.0,30.9,40,30.16,10.0,ENE,4.6,-,N/A,,Mostly Cloudy,60,2013-05-13 22:53:00
8:53 PM,48.0,35.1,61,30.19,10.0,Calm,Calm,-,N/A,,Clear,0,2013-05-14 00:53:00
9:53 PM,43.0,36.0,76,30.21,10.0,Calm,Calm,-,N/A,,Clear,0,2013-05-14 01:53:00
10:53 PM,41.0,37.0,86,30.22,10.0,Calm,Calm,-,N/A,,Clear,0,2013-05-14 02:53:00
11:53 PM,39.0,36.0,89,30.21,7.0,Calm,Calm,-,N/A,,Clear,0,2013-05-14 03:53:00